AAR360 RKSI-ZSPD

Flight info

Callsign AAR360
Flight time 1h 28m
Altitude 40000
Route BOPTA3C BOPTA Z51 BEDES Y711 PONIK A593 LAMEN/K0933F280 A593 AKARA/K0926S0840 A593 PUD
Aircraft A359/H-SDE2E3GHIJ3J4J5LM1ORWXY/LB1D1

Departure

Time 2026-05-06 18:40
Airport Incheon International Airport (RKSI)

Arrival

Time 2026-05-06 20:08
Airport Shanghai Pudong International Airport (ZSPD)
Time Latitude Longitude Altitude Speed Heading
2026-05-06 17:43 37.46721 126.44201 38 ft 0 kts 234°
2026-05-06 18:27 37.46733 126.44222 37 ft 4 kts 234°
2026-05-06 18:27 37.46743 126.44240 37 ft 4 kts 237°
2026-05-06 18:28 37.46754 126.44263 36 ft 4 kts 248°
2026-05-06 18:28 37.46758 126.44290 36 ft 4 kts 309°
2026-05-06 18:28 37.46739 126.44309 34 ft 4 kts 324°
2026-05-06 18:28 37.46735 126.44313 38 ft 0 kts 324°
2026-05-06 18:33 37.46737 126.44311 35 ft 2 kts 324°
2026-05-06 18:33 37.46764 126.44287 38 ft 7 kts 324°
2026-05-06 18:33 37.46812 126.44237 38 ft 11 kts 318°
2026-05-06 18:33 37.46870 126.44162 38 ft 12 kts 313°
2026-05-06 18:34 37.46929 126.44092 38 ft 12 kts 332°
2026-05-06 18:34 37.46999 126.44137 38 ft 13 kts 54°
2026-05-06 18:34 37.47073 126.44193 38 ft 14 kts 341°
2026-05-06 18:34 37.47161 126.44120 38 ft 17 kts 324°
2026-05-06 18:35 37.47263 126.44028 38 ft 20 kts 324°
2026-05-06 18:35 37.47384 126.43920 38 ft 23 kts 324°
2026-05-06 18:35 37.47519 126.43800 37 ft 25 kts 324°
2026-05-06 18:35 37.47668 126.43667 38 ft 27 kts 324°
2026-05-06 18:36 37.47803 126.43548 38 ft 21 kts 325°
2026-05-06 18:36 37.47909 126.43453 38 ft 13 kts 324°
2026-05-06 18:36 37.47970 126.43400 37 ft 11 kts 329°
2026-05-06 18:36 37.48035 126.43425 38 ft 12 kts 51°
2026-05-06 18:37 37.48075 126.43496 38 ft 7 kts 54°
2026-05-06 18:37 37.48087 126.43517 38 ft 0 kts 54°
2026-05-06 18:37 37.48093 126.43527 38 ft 3 kts 54°
2026-05-06 18:38 37.48114 126.43564 38 ft 7 kts 54°
2026-05-06 18:38 37.48147 126.43629 38 ft 10 kts 70°
2026-05-06 18:38 37.48124 126.43681 38 ft 8 kts 140°
2026-05-06 18:38 37.48105 126.43698 38 ft 0 kts 145°
2026-05-06 18:39 37.48061 126.43737 38 ft 35 kts 145°
2026-05-06 18:40 37.46843 126.44822 99 ft 166 kts 144°
2026-05-06 18:40 37.45884 126.45689 785 ft 172 kts 146°
2026-05-06 18:40 37.44979 126.46688 1653 ft 178 kts 141°
2026-05-06 18:40 37.44188 126.48004 2096 ft 205 kts 130°
2026-05-06 18:41 37.43340 126.49582 2524 ft 231 kts 130°
2026-05-06 18:41 37.42307 126.51253 3034 ft 250 kts 136°
2026-05-06 18:41 37.41138 126.52929 3810 ft 259 kts 137°
2026-05-06 18:41 37.39914 126.54655 4500 ft 269 kts 136°
2026-05-06 18:42 37.38650 126.56435 5023 ft 277 kts 136°
2026-05-06 18:42 37.37279 126.58146 5877 ft 278 kts 146°
2026-05-06 18:42 37.35577 126.59259 6795 ft 277 kts 163°
2026-05-06 18:42 37.33752 126.60067 7716 ft 280 kts 165°
2026-05-06 18:43 37.31917 126.60840 8671 ft 284 kts 166°
2026-05-06 18:43 37.30035 126.61637 9645 ft 287 kts 166°
2026-05-06 18:43 37.28119 126.62444 10445 ft 297 kts 167°
2026-05-06 18:43 37.26031 126.62881 10842 ft 313 kts 182°
2026-05-06 18:44 37.23779 126.62868 11223 ft 334 kts 185°
2026-05-06 18:44 37.21398 126.62783 11697 ft 350 kts 185°
2026-05-06 18:44 37.18941 126.62704 12424 ft 356 kts 185°
2026-05-06 18:44 37.16438 126.62635 13205 ft 362 kts 185°
2026-05-06 18:45 37.13908 126.62570 13957 ft 367 kts 185°
2026-05-06 18:45 37.11346 126.62510 14673 ft 370 kts 185°
2026-05-06 18:45 37.08797 126.62472 15407 ft 372 kts 185°
2026-05-06 18:45 37.07044 126.62453 15916 ft 373 kts 185°
2026-05-06 18:46 37.03590 126.62415 16928 ft 377 kts 186°
2026-05-06 18:46 37.00962 126.62385 17682 ft 379 kts 186°
2026-05-06 18:46 36.98318 126.62353 18423 ft 382 kts 187°
2026-05-06 18:46 36.95640 126.62359 19055 ft 387 kts 186°
2026-05-06 18:47 36.92938 126.62397 19681 ft 390 kts 186°
2026-05-06 18:47 36.90211 126.62437 20323 ft 394 kts 186°
2026-05-06 18:47 36.87499 126.62472 20952 ft 397 kts 186°
2026-05-06 18:47 36.84735 126.62359 21595 ft 398 kts 189°
2026-05-06 18:48 36.81961 126.62166 22193 ft 402 kts 190°
2026-05-06 18:48 36.79149 126.61978 22835 ft 407 kts 190°
2026-05-06 18:48 36.76312 126.61804 23488 ft 411 kts 189°
2026-05-06 18:48 36.73418 126.61899 23996 ft 423 kts 181°
2026-05-06 18:49 36.70481 126.62528 24521 ft 433 kts 175°
2026-05-06 18:49 36.67564 126.63398 25037 ft 440 kts 173°
2026-05-06 18:49 36.64591 126.64407 25568 ft 445 kts 172°
2026-05-06 18:49 36.61598 126.65469 26066 ft 450 kts 171°
2026-05-06 18:50 36.58571 126.66543 26565 ft 454 kts 171°
2026-05-06 18:50 36.55517 126.67612 27084 ft 458 kts 171°
2026-05-06 18:50 36.52432 126.68673 27577 ft 462 kts 172°
2026-05-06 18:50 36.49320 126.69727 28072 ft 466 kts 172°
2026-05-06 18:51 36.46179 126.70781 28561 ft 470 kts 172°
2026-05-06 18:51 36.43011 126.71839 29040 ft 474 kts 172°
2026-05-06 18:51 36.39861 126.72889 29492 ft 477 kts 172°
2026-05-06 18:51 36.36646 126.73966 30031 ft 480 kts 172°
2026-05-06 18:52 36.33403 126.75061 30398 ft 484 kts 172°
2026-05-06 18:52 36.30149 126.76160 30811 ft 486 kts 172°
2026-05-06 18:52 36.26872 126.77265 31189 ft 489 kts 172°
2026-05-06 18:52 36.23580 126.78374 31578 ft 492 kts 172°
2026-05-06 18:53 36.20267 126.79489 31951 ft 494 kts 172°
2026-05-06 18:53 36.16921 126.80431 32277 ft 490 kts 178°
2026-05-06 18:53 36.13597 126.80813 32677 ft 483 kts 186°
2026-05-06 18:53 36.10250 126.80698 33031 ft 481 kts 189°
2026-05-06 18:54 36.06913 126.80421 33444 ft 480 kts 191°
2026-05-06 18:54 36.03593 126.80071 33946 ft 477 kts 192°
2026-05-06 18:54 36.00299 126.79692 34384 ft 475 kts 192°
2026-05-06 18:54 35.97010 126.79307 34775 ft 473 kts 192°
2026-05-06 18:55 35.93744 126.78932 35270 ft 470 kts 192°
2026-05-06 18:55 35.90490 126.78566 35636 ft 470 kts 192°
2026-05-06 18:55 35.87232 126.78212 35954 ft 470 kts 192°
2026-05-06 18:55 35.84018 126.77862 36279 ft 470 kts 192°
2026-05-06 18:56 35.80759 126.77506 36603 ft 470 kts 192°
2026-05-06 18:56 35.77503 126.77149 36909 ft 470 kts 192°
2026-05-06 18:56 35.74246 126.76795 37240 ft 469 kts 192°
2026-05-06 18:56 35.70996 126.76442 37545 ft 469 kts 192°
2026-05-06 18:57 35.67745 126.76091 37854 ft 469 kts 192°
2026-05-06 18:57 35.64492 126.75740 38134 ft 469 kts 192°
2026-05-06 18:57 35.61287 126.75395 38422 ft 469 kts 192°
2026-05-06 18:57 35.58042 126.75045 38707 ft 468 kts 192°
2026-05-06 18:58 35.54816 126.74703 39094 ft 464 kts 192°
2026-05-06 18:58 35.51596 126.74358 39238 ft 465 kts 192°
2026-05-06 18:58 35.48362 126.74010 39384 ft 467 kts 192°
2026-05-06 18:58 35.45121 126.73664 39592 ft 468 kts 192°
2026-05-06 18:59 35.41879 126.73317 39797 ft 468 kts 192°
2026-05-06 18:59 35.38634 126.72969 39963 ft 468 kts 192°
2026-05-06 18:59 35.35388 126.72619 40040 ft 468 kts 192°
2026-05-06 19:00 35.28971 126.71930 40042 ft 465 kts 192°
2026-05-06 19:00 35.22522 126.71241 40040 ft 465 kts 192°
2026-05-06 19:01 35.16078 126.70557 40037 ft 465 kts 191°
2026-05-06 19:01 35.09640 126.69880 40036 ft 464 kts 191°
2026-05-06 19:02 35.03251 126.69202 40033 ft 464 kts 191°
2026-05-06 19:02 34.96818 126.68516 40037 ft 464 kts 191°
2026-05-06 19:03 34.90392 126.67833 40037 ft 464 kts 191°
2026-05-06 19:03 34.83953 126.67152 40036 ft 464 kts 191°
2026-05-06 19:04 34.77562 126.66477 40036 ft 465 kts 191°
2026-05-06 19:04 34.71099 126.65796 40037 ft 466 kts 191°
2026-05-06 19:05 34.64635 126.65117 40038 ft 467 kts 191°
2026-05-06 19:05 34.58164 126.64437 40022 ft 467 kts 191°
2026-05-06 19:06 34.51702 126.63756 40035 ft 470 kts 191°
2026-05-06 19:06 34.45183 126.63076 40030 ft 470 kts 191°
2026-05-06 19:07 34.38664 126.62400 40026 ft 470 kts 191°
2026-05-06 19:07 34.32132 126.61718 40031 ft 471 kts 191°
2026-05-06 19:08 34.25640 126.61040 40032 ft 472 kts 191°
2026-05-06 19:08 34.19102 126.60357 40016 ft 472 kts 191°
2026-05-06 19:09 34.12549 126.59672 40032 ft 473 kts 191°
2026-05-06 19:09 34.05988 126.58990 40032 ft 473 kts 191°
2026-05-06 19:10 33.99423 126.58308 40014 ft 473 kts 191°
2026-05-06 19:10 33.92900 126.57631 40030 ft 474 kts 191°
2026-05-06 19:11 33.86333 126.56903 40021 ft 472 kts 194°
2026-05-06 19:11 33.80054 126.54963 40015 ft 463 kts 204°
2026-05-06 19:12 33.73975 126.52397 40021 ft 463 kts 205°
2026-05-06 19:12 33.67959 126.49750 40020 ft 463 kts 205°
2026-05-06 19:13 33.61905 126.47102 40015 ft 462 kts 205°
2026-05-06 19:13 33.55853 126.44477 40021 ft 463 kts 205°
2026-05-06 19:14 33.49823 126.41875 40020 ft 464 kts 205°
2026-05-06 19:14 33.43755 126.39262 40020 ft 464 kts 205°
2026-05-06 19:15 33.37675 126.36653 40019 ft 464 kts 205°
2026-05-06 19:15 33.31593 126.34038 40014 ft 465 kts 205°
2026-05-06 19:16 33.25547 126.31444 40016 ft 465 kts 205°
2026-05-06 19:16 33.19456 126.28834 40017 ft 466 kts 205°
2026-05-06 19:17 33.13354 126.26226 40020 ft 466 kts 205°
2026-05-06 19:17 33.07253 126.23622 40018 ft 465 kts 205°
2026-05-06 19:18 33.01197 126.21041 40020 ft 465 kts 205°
2026-05-06 19:18 32.95107 126.18444 40020 ft 465 kts 205°
2026-05-06 19:19 32.89029 126.15828 40021 ft 465 kts 205°
2026-05-06 19:19 32.82951 126.13215 40020 ft 465 kts 205°
2026-05-06 19:20 32.76895 126.10620 40020 ft 466 kts 205°
2026-05-06 19:20 32.70799 126.08016 40017 ft 466 kts 205°
2026-05-06 19:21 32.64695 126.05412 40014 ft 466 kts 205°
2026-05-06 19:21 32.58589 126.02810 40018 ft 467 kts 205°
2026-05-06 19:22 32.52513 126.00225 40017 ft 467 kts 205°
2026-05-06 19:22 32.46392 125.97629 40008 ft 467 kts 204°
2026-05-06 19:23 32.40259 125.95034 40018 ft 468 kts 205°
2026-05-06 19:23 32.34126 125.92436 40018 ft 468 kts 205°
2026-05-06 19:24 32.27988 125.89841 40001 ft 468 kts 205°
2026-05-06 19:24 32.21878 125.87262 40018 ft 470 kts 205°
2026-05-06 19:25 32.15725 125.84671 40015 ft 470 kts 205°
2026-05-06 19:25 32.09603 125.81984 40016 ft 467 kts 209°
2026-05-06 19:26 32.04214 125.78003 40013 ft 457 kts 225°
2026-05-06 19:26 32.00144 125.72403 40009 ft 447 kts 242°
2026-05-06 19:27 31.97742 125.65739 40008 ft 441 kts 256°
2026-05-06 19:27 31.96147 125.58763 40009 ft 441 kts 257°
2026-05-06 19:28 31.94655 125.51803 40007 ft 442 kts 257°
2026-05-06 19:28 31.93125 125.44804 40010 ft 441 kts 257°
2026-05-06 19:29 31.91565 125.37817 40015 ft 441 kts 257°
2026-05-06 19:29 31.89993 125.30839 40015 ft 441 kts 257°
2026-05-06 19:30 31.88418 125.23864 40017 ft 441 kts 257°
2026-05-06 19:30 31.86850 125.16937 40017 ft 441 kts 257°
2026-05-06 19:31 31.85269 125.09967 40008 ft 441 kts 257°
2026-05-06 19:31 31.82888 124.99507 40008 ft 441 kts 257°
2026-05-06 19:32 31.81350 124.92531 40003 ft 440 kts 258°
2026-05-06 19:32 31.79870 124.85601 40009 ft 440 kts 258°
2026-05-06 19:33 31.78372 124.78633 40007 ft 440 kts 257°
2026-05-06 19:33 31.76858 124.71662 40005 ft 440 kts 257°
2026-05-06 19:34 31.75338 124.64705 40005 ft 439 kts 257°
2026-05-06 19:34 31.73816 124.57757 40007 ft 439 kts 257°
2026-05-06 19:35 31.72299 124.50853 40003 ft 439 kts 257°
2026-05-06 19:35 31.70770 124.43908 39997 ft 439 kts 257°
2026-05-06 19:36 31.69239 124.36975 39988 ft 438 kts 257°
2026-05-06 19:36 31.67705 124.30052 39996 ft 438 kts 257°
2026-05-06 19:37 31.66178 124.23174 39993 ft 439 kts 257°
2026-05-06 19:37 31.64896 124.17417 39998 ft 438 kts 257°
2026-05-06 19:38 31.63097 124.09358 39993 ft 437 kts 257°
2026-05-06 19:38 31.61554 124.02468 39996 ft 436 kts 257°
2026-05-06 19:39 31.60029 123.95628 39993 ft 436 kts 257°
2026-05-06 19:39 31.58529 123.88739 39985 ft 436 kts 257°
2026-05-06 19:40 31.57029 123.81849 39990 ft 436 kts 257°
2026-05-06 19:40 31.55521 123.74965 39988 ft 436 kts 257°
2026-05-06 19:41 31.54016 123.68134 39994 ft 436 kts 257°
2026-05-06 19:41 31.52498 123.61260 39985 ft 435 kts 257°
2026-05-06 19:42 31.50976 123.54391 39963 ft 435 kts 257°
2026-05-06 19:42 31.50214 123.50960 39746 ft 435 kts 257°
2026-05-06 19:42 31.49472 123.47521 39505 ft 436 kts 258°
2026-05-06 19:43 31.48819 123.44052 39279 ft 436 kts 258°
2026-05-06 19:43 31.48182 123.40578 39049 ft 437 kts 258°
2026-05-06 19:43 31.47545 123.37145 38803 ft 438 kts 258°
2026-05-06 19:43 31.46891 123.33660 38561 ft 438 kts 258°
2026-05-06 19:44 31.46233 123.30179 38284 ft 439 kts 258°
2026-05-06 19:44 31.45574 123.26706 37705 ft 435 kts 258°
2026-05-06 19:44 31.44916 123.23255 37016 ft 434 kts 258°
2026-05-06 19:44 31.44258 123.19810 36326 ft 433 kts 258°
2026-05-06 19:45 31.43597 123.16360 35597 ft 434 kts 257°
2026-05-06 19:45 31.42943 123.12946 34829 ft 437 kts 257°
2026-05-06 19:45 31.42281 123.09503 33981 ft 441 kts 257°
2026-05-06 19:45 31.41676 123.06358 33139 ft 445 kts 257°
2026-05-06 19:46 31.41347 123.04652 32695 ft 447 kts 257°
2026-05-06 19:46 31.40660 123.01093 31766 ft 450 kts 257°
2026-05-06 19:46 31.39966 122.97506 30815 ft 454 kts 257°
2026-05-06 19:46 31.39267 122.93892 29794 ft 458 kts 257°
2026-05-06 19:47 31.38560 122.90243 28815 ft 459 kts 257°
2026-05-06 19:47 31.37868 122.86674 28139 ft 453 kts 257°
2026-05-06 19:47 31.37172 122.83097 27438 ft 449 kts 257°
2026-05-06 19:47 31.36482 122.79549 26724 ft 445 kts 257°
2026-05-06 19:48 31.35790 122.76036 26016 ft 442 kts 256°
2026-05-06 19:48 31.34980 122.72584 25321 ft 438 kts 253°
2026-05-06 19:48 31.34127 122.69180 24609 ft 435 kts 253°
2026-05-06 19:48 31.33284 122.65798 23917 ft 432 kts 253°
2026-05-06 19:49 31.32453 122.62431 23161 ft 429 kts 253°
2026-05-06 19:49 31.31646 122.59140 22432 ft 425 kts 253°
2026-05-06 19:49 31.30839 122.55841 21729 ft 419 kts 253°
2026-05-06 19:49 31.30044 122.52583 21035 ft 414 kts 253°
2026-05-06 19:50 31.29257 122.49362 20338 ft 410 kts 253°
2026-05-06 19:50 31.28478 122.46171 19636 ft 406 kts 253°
2026-05-06 19:50 31.27704 122.43006 18925 ft 403 kts 253°
2026-05-06 19:50 31.26936 122.39866 18214 ft 401 kts 253°
2026-05-06 19:51 31.26172 122.36749 17433 ft 398 kts 253°
2026-05-06 19:51 31.25424 122.33698 16725 ft 394 kts 253°
2026-05-06 19:51 31.24674 122.30640 15997 ft 390 kts 253°
2026-05-06 19:51 31.23930 122.27610 15289 ft 386 kts 253°
2026-05-06 19:52 31.23190 122.24604 14573 ft 383 kts 253°
2026-05-06 19:52 31.22455 122.21620 13854 ft 381 kts 253°
2026-05-06 19:52 31.21725 122.18660 13087 ft 378 kts 253°
2026-05-06 19:52 31.21003 122.15735 12352 ft 374 kts 254°
2026-05-06 19:53 31.20296 122.12872 11664 ft 370 kts 254°
2026-05-06 19:53 31.19588 122.10009 11153 ft 361 kts 254°
2026-05-06 19:53 31.18908 122.07264 11022 ft 342 kts 254°
2026-05-06 19:53 31.18263 122.04663 10904 ft 325 kts 254°
2026-05-06 19:54 31.17651 122.02194 10769 ft 309 kts 254°
2026-05-06 19:54 31.17077 121.99837 10640 ft 294 kts 256°
2026-05-06 19:54 31.16856 121.97531 10509 ft 281 kts 274°
2026-05-06 19:54 31.17340 121.95389 10379 ft 269 kts 295°
2026-05-06 19:55 31.18440 121.93682 10248 ft 260 kts 316°
2026-05-06 19:55 31.19923 121.92605 10133 ft 253 kts 335°
2026-05-06 19:55 31.21630 121.92127 9889 ft 251 kts 347°
2026-05-06 19:55 31.23332 121.91694 9518 ft 250 kts 341°
2026-05-06 19:56 31.24997 121.91130 9161 ft 248 kts 339°
2026-05-06 19:56 31.26644 121.90530 8802 ft 248 kts 339°
2026-05-06 19:56 31.28286 121.89921 8454 ft 247 kts 339°
2026-05-06 19:56 31.29921 121.89309 8124 ft 246 kts 338°
2026-05-06 19:57 31.31529 121.88705 7810 ft 245 kts 338°
2026-05-06 19:57 31.33149 121.88095 7490 ft 244 kts 338°
2026-05-06 19:57 31.34758 121.87488 7270 ft 241 kts 338°
2026-05-06 19:57 31.36353 121.86886 7150 ft 241 kts 338°
2026-05-06 19:58 31.37949 121.86282 7031 ft 241 kts 338°
2026-05-06 19:58 31.39544 121.85678 6910 ft 241 kts 338°
2026-05-06 19:58 31.41140 121.85075 6753 ft 241 kts 338°
2026-05-06 19:58 31.42193 121.84668 6595 ft 239 kts 336°
2026-05-06 19:59 31.43956 121.83265 6267 ft 229 kts 301°
2026-05-06 19:59 31.44494 121.81577 6030 ft 220 kts 271°
2026-05-06 19:59 31.44347 121.79831 5873 ft 211 kts 257°
2026-05-06 19:59 31.44031 121.78193 5731 ft 202 kts 256°
2026-05-06 20:00 31.43717 121.76628 5581 ft 195 kts 256°
2026-05-06 20:00 31.43413 121.75087 5468 ft 194 kts 257°
2026-05-06 20:00 31.43200 121.74080 5310 ft 192 kts 253°
2026-05-06 20:00 31.42534 121.72753 5095 ft 192 kts 224°
2026-05-06 20:01 31.41315 121.72154 4845 ft 197 kts 184°
2026-05-06 20:01 31.39532 121.72648 4534 ft 202 kts 162°
2026-05-06 20:01 31.38204 121.73195 4326 ft 202 kts 165°
2026-05-06 20:01 31.36874 121.73713 4152 ft 201 kts 165°
2026-05-06 20:02 31.35994 121.74047 4013 ft 200 kts 166°
2026-05-06 20:02 31.34668 121.74540 3762 ft 199 kts 165°
2026-05-06 20:02 31.33380 121.75031 3509 ft 188 kts 165°
2026-05-06 20:02 31.32181 121.75488 3299 ft 175 kts 165°
2026-05-06 20:03 31.31054 121.75914 3041 ft 165 kts 165°
2026-05-06 20:03 31.29997 121.76316 2814 ft 154 kts 165°
2026-05-06 20:03 31.29013 121.76690 2625 ft 143 kts 166°
2026-05-06 20:03 31.27811 121.77146 2386 ft 133 kts 165°
2026-05-06 20:04 31.27216 121.77371 2274 ft 133 kts 165°
2026-05-06 20:04 31.26351 121.77700 2100 ft 132 kts 165°
2026-05-06 20:04 31.25477 121.78032 1935 ft 132 kts 165°
2026-05-06 20:04 31.24608 121.78361 1758 ft 131 kts 165°
2026-05-06 20:05 31.23745 121.78689 1595 ft 130 kts 165°
2026-05-06 20:05 31.22968 121.78983 1428 ft 129 kts 164°
2026-05-06 20:05 31.22116 121.79306 1259 ft 129 kts 163°
2026-05-06 20:05 31.21264 121.79629 1081 ft 129 kts 163°
2026-05-06 20:06 31.20416 121.79951 915 ft 128 kts 163°
2026-05-06 20:06 31.19588 121.80266 771 ft 127 kts 162°
2026-05-06 20:06 31.18750 121.80586 577 ft 127 kts 162°
2026-05-06 20:06 31.17912 121.80911 401 ft 127 kts 162°
2026-05-06 20:07 31.17062 121.81234 279 ft 131 kts 162°
2026-05-06 20:07 31.16200 121.81552 122 ft 129 kts 163°
2026-05-06 20:07 31.15348 121.81873 33 ft 125 kts 162°
2026-05-06 20:07 31.14643 121.82138 27 ft 77 kts 162°
2026-05-06 20:08 31.14261 121.82282 29 ft 51 kts 162°
2026-05-06 20:08 31.13944 121.82401 28 ft 36 kts 162°
2026-05-06 20:08 31.13752 121.82443 28 ft 28 kts 181°
2026-05-06 20:08 31.13597 121.82417 28 ft 12 kts 191°
2026-05-06 20:09 31.13504 121.82399 29 ft 15 kts 190°
2026-05-06 20:09 31.13395 121.82377 29 ft 16 kts 189°
2026-05-06 20:09 31.13296 121.82376 29 ft 13 kts 171°
2026-05-06 20:09 31.13216 121.82396 29 ft 9 kts 182°
2026-05-06 20:10 31.13177 121.82339 28 ft 11 kts 251°
2026-05-06 20:10 31.13150 121.82238 28 ft 15 kts 252°
2026-05-06 20:10 31.13120 121.82129 28 ft 13 kts 252°
2026-05-06 20:10 31.13103 121.82068 28 ft 7 kts 252°
2026-05-06 20:11 31.13088 121.82016 28 ft 8 kts 252°
2026-05-06 20:11 31.13069 121.81944 29 ft 7 kts 256°
2026-05-06 20:11 31.13094 121.81897 29 ft 8 kts 333°
2026-05-06 20:11 31.13161 121.81871 29 ft 12 kts 343°
2026-05-06 20:12 31.13254 121.81837 29 ft 16 kts 342°
2026-05-06 20:12 31.13369 121.81794 29 ft 19 kts 342°
2026-05-06 20:12 31.13494 121.81747 29 ft 19 kts 342°
2026-05-06 20:12 31.13635 121.81695 29 ft 22 kts 342°
2026-05-06 20:13 31.13780 121.81640 29 ft 20 kts 341°
2026-05-06 20:13 31.13861 121.81598 29 ft 9 kts 310°
2026-05-06 20:13 31.13858 121.81522 29 ft 11 kts 252°
2026-05-06 20:13 31.13830 121.81423 29 ft 14 kts 252°
2026-05-06 20:14 31.13812 121.81358 29 ft 1 kts 252°
2026-05-06 20:14 31.13807 121.81338 29 ft 4 kts 252°
2026-05-06 20:14 31.13798 121.81306 29 ft 1 kts 252°
2026-05-06 20:15 31.13799 121.81309 30 ft 0 kts 252°
2026-05-06 20:15 31.13808 121.81343 29 ft 0 kts 252°
2026-05-06 20:15 31.13808 121.81342 29 ft 0 kts 252°
2026-05-06 20:15 31.13806 121.81336 29 ft 1 kts 251°
2026-05-06 20:16 31.13802 121.81321 29 ft 1 kts 252°
2026-05-06 20:16 31.13801 121.81316 29 ft 0 kts 252°